PBO Station Position Time Series. Reference Frame : NAM14
Format Version,1.1.1
4-character ID,WMAP
Station name,WhitemanAirSCIGN
Begin Date, 1998-12-30
End Date, 2023-06-26
Release Date, 2023-06-27
Reference position, 34.2594240931 North Latitude, -118.4142916906 East Longitude, 268.10127 meters elevation,
Date, North (mm), East (mm), Vertical (mm), North Std. Deviation (mm), East Std. Deviation (mm),              Vertical Std. Deviation (mm), Quality,
1998-12-30,0.00, 0.00, 0.00, 2.49, 2.32, 9.69, repro,
1998-12-31,-0.45, -0.51, 10.39, 2.30, 1.97, 8.66, repro,
1999-01-01,-0.15, -1.25, -1.27, 2.27, 2.03, 8.94, repro,
1999-01-02,-0.97, 0.51, 5.80, 2.39, 2.26, 9.38, repro,
1999-01-03,-1.06, -0.20, 0.88, 2.21, 2.01, 8.57, repro,
1999-01-04,-0.44, -2.06, -0.40, 2.31, 2.05, 8.96, repro,
1999-01-05,-0.54, 0.73, 13.85, 2.26, 2.06, 8.65, repro,
1999-01-06,0.71, -0.87, 6.55, 2.16, 1.97, 8.67, repro,
1999-01-07,-0.94, -0.58, 6.48, 2.15, 1.90, 8.34, repro,
1999-01-08,-1.56, -0.20, 12.34, 2.12, 1.88, 8.30, repro,
1999-01-09,0.15, -0.02, 5.11, 2.17, 1.87, 8.33, repro,
1999-01-10,0.37, -1.00, -2.85, 2.21, 1.90, 8.69, repro,
1999-01-11,-1.00, -0.15, 7.42, 2.18, 1.89, 8.45, repro,
1999-01-12,-1.15, -0.94, 20.62, 5.57, 5.00, 22.29, repro,
1999-01-13,0.05, -0.84, 1.60, 2.68, 2.28, 10.19, repro,
1999-01-14,0.45, -0.90, 2.98, 2.33, 1.91, 8.79, repro,
1999-01-15,-1.35, -1.62, 6.59, 2.21, 1.91, 8.49, repro,
1999-01-16,-1.58, 1.30, 10.03, 2.15, 1.84, 8.19, repro,
1999-01-17,-0.41, 0.25, 4.43, 2.16, 1.90, 8.33, repro,
1999-01-18,-0.67, -1.08, 3.15, 2.14, 1.87, 8.06, repro,
1999-01-19,-0.59, -0.28, 5.09, 2.11, 1.79, 7.87, repro,
1999-01-20,-1.52, -1.00, 8.17, 2.23, 1.87, 8.46, repro,
1999-01-21,-2.05, 1.06, 4.42, 2.26, 1.95, 8.72, repro,
1999-01-22,1.55, -0.66, 4.17, 2.22, 1.97, 8.57, repro,
1999-01-23,1.38, -0.47, 12.83, 2.31, 2.05, 8.95, repro,
1999-01-24,0.15, -0.40, 0.62, 2.30, 1.93, 9.05, repro,
1999-01-25,-0.34, 0.83, 10.94, 2.32, 2.03, 9.36, repro,
1999-01-26,-2.07, -0.47, -2.50, 2.44, 2.07, 10.39, repro,
1999-01-27,-2.14, -0.59, 5.32, 2.29, 1.88, 8.85, repro,
1999-01-28,-0.20, -0.35, 13.23, 2.20, 1.88, 8.50, repro,
1999-01-29,-0.10, 0.02, 12.91, 2.30, 1.95, 9.03, repro,
1999-01-30,-0.94, -0.24, 7.20, 2.41, 2.04, 9.40, repro,
1999-01-31,0.85, -0.46, 14.63, 2.33, 2.06, 9.22, repro,
1999-02-01,-1.26, -0.36, 12.69, 2.08, 1.80, 7.97, repro,
1999-02-02,0.49, 0.38, 10.70, 2.26, 1.88, 8.80, repro,
1999-02-03,1.36, -1.36, 15.39, 2.36, 1.96, 9.62, repro,
1999-02-04,0.78, -2.14, 14.99, 2.35, 1.86, 9.03, repro,
1999-02-05,-2.19, -1.36, 7.42, 2.30, 1.91, 8.87, repro,
1999-02-06,-0.74, -1.48, 12.87, 2.31, 2.00, 9.33, repro,
1999-02-07,-1.60, -2.02, 6.87, 2.19, 1.88, 8.58, repro,
1999-02-08,-1.46, 0.80, 13.83, 2.37, 2.13, 9.31, repro,
1999-02-09,-0.50, 0.50, 8.48, 2.30, 1.99, 9.14, repro,
1999-02-10,-3.54, -2.54, 17.55, 2.25, 1.94, 8.74, repro,
1999-02-11,-0.64, -0.04, 1.96, 2.29, 1.92, 8.90, repro,
1999-02-12,0.54, 0.57, 2.05, 2.34, 1.93, 9.29, repro,
1999-02-13,-0.24, -0.68, -3.35, 2.16, 1.85, 8.19, repro,
1999-02-14,-1.28, 0.92, -3.86, 2.31, 2.03, 8.95, repro,
1999-02-15,-6.39, -3.93, 3.69, 2.25, 1.95, 8.85, repro,
1999-02-16,-21.29, -4.00, 4.13, 2.25, 2.07, 9.30, repro,
1999-02-17,-4.35, -3.48, 7.68, 2.31, 2.03, 8.99, repro,
1999-02-18,-27.57, -3.92, 24.52, 2.25, 1.95, 9.11, repro,
1999-02-19,-21.00, -3.62, 4.52, 2.24, 2.00, 9.01, repro,
1999-02-20,-15.05, -3.74, 10.80, 2.20, 1.99, 8.83, repro,
1999-02-21,-19.95, -7.97, 10.30, 2.19, 2.04, 8.99, repro,
1999-02-22,-30.02, -3.62, 23.29, 2.20, 2.01, 8.90, repro,
1999-02-23,-22.00, -7.44, 14.79, 2.19, 2.06, 8.95, repro,
1999-02-24,-2.88, -3.02, 9.74, 5.31, 5.43, 20.85, repro,
1999-02-25,-17.45, -7.26, 18.29, 3.14, 3.03, 12.55, repro,
1999-02-26,-25.81, -2.44, 3.28, 2.20, 2.00, 8.77, repro,
1999-02-27,-19.50, -8.83, 20.18, 2.21, 2.04, 8.82, repro,
1999-02-28,-18.96, -4.88, 14.51, 2.15, 2.00, 8.64, repro,
1999-03-01,-31.58, -12.56, 29.80, 2.97, 2.85, 11.61, repro,
1999-03-02,-43.27, -77.78, -0.19, 71.69, 341.23, 459.97, repro,
1999-03-03,-32.89, -8.74, 16.21, 2.41, 2.36, 9.89, repro,
1999-03-04,-33.72, -7.57, 8.88, 2.70, 2.65, 11.37, repro,
1999-03-05,-43.61, -10.43, 21.28, 2.21, 2.14, 9.17, repro,
1999-03-06,-43.60, -13.53, 28.20, 2.17, 2.05, 8.84, repro,
1999-03-07,-44.44, -11.39, 26.57, 2.21, 2.11, 9.38, repro,
1999-03-08,-41.82, -8.47, 25.78, 2.25, 2.16, 9.55, repro,
1999-03-09,-39.23, -13.25, 38.31, 2.16, 2.10, 9.16, repro,
1999-03-10,-31.46, -0.33, 6.21, 2.16, 2.07, 8.70, repro,
1999-03-11,-41.61, -9.12, 30.19, 2.12, 2.06, 8.88, repro,
1999-03-12,-38.61, -4.97, 20.05, 2.20, 2.05, 9.00, repro,
1999-03-13,-40.41, -10.81, 23.84, 2.57, 2.58, 10.84, repro,
1999-03-14,-42.77, -17.14, 42.31, 2.18, 2.12, 9.13, repro,
1999-03-15,-41.12, -15.50, 40.79, 2.30, 2.30, 9.68, repro,
1999-03-16,-39.89, -5.65, 33.06, 2.29, 2.20, 9.54, repro,
1999-03-17,-38.54, -7.38, 5.54, 2.16, 2.02, 8.73, repro,
1999-03-18,-40.92, -8.85, 10.72, 2.29, 2.24, 9.69, repro,
1999-03-19,-41.20, -11.94, 19.71, 2.29, 2.20, 9.46, repro,
1999-03-20,-41.57, -15.01, 38.58, 2.29, 2.32, 9.79, repro,
1999-03-21,-41.48, 11.31, 18.51, 3.09, 3.25, 12.61, repro,
1999-03-22,-41.98, -11.58, 24.79, 2.30, 2.30, 9.61, repro,
1999-03-23,-40.78, -10.84, 46.37, 2.35, 2.29, 9.74, repro,
1999-03-24,-42.35, -10.04, 22.57, 2.31, 2.17, 9.34, repro,
1999-03-25,-40.82, -3.96, 26.82, 2.34, 2.18, 9.61, repro,
1999-03-26,-39.52, -8.75, 30.61, 2.33, 2.31, 9.67, repro,
1999-03-27,-39.97, -11.19, 18.45, 2.18, 2.09, 9.00, repro,
1999-03-28,-44.67, -15.82, 27.15, 2.32, 2.37, 10.05, repro,
1999-03-29,-40.35, -12.43, 20.23, 2.27, 2.19, 9.31, repro,
1999-03-30,-42.69, -10.80, 37.04, 2.38, 2.27, 9.85, repro,
1999-03-31,-42.93, -1.57, 41.76, 2.35, 2.17, 9.61, repro,
1999-04-01,-42.56, -9.77, 42.40, 2.25, 2.22, 9.35, repro,
1999-04-02,-43.47, -11.43, 35.98, 2.35, 2.26, 9.65, repro,
1999-04-03,-44.49, -1.97, 16.98, 2.79, 2.74, 11.69, repro,
1999-04-04,-45.26, -11.45, 48.70, 2.25, 2.22, 9.46, repro,
1999-04-05,-44.36, -11.65, 53.38, 2.36, 2.30, 9.95, repro,
1999-04-06,-40.88, -16.59, 36.86, 2.23, 2.17, 9.28, repro,
1999-04-07,-38.27, -12.03, 25.52, 2.19, 2.10, 9.21, repro,
1999-04-08,-44.04, -10.73, 29.63, 2.19, 2.04, 9.15, repro,
1999-04-09,-41.42, -0.09, 33.47, 2.63, 2.46, 11.21, repro,
1999-04-10,-42.71, -8.66, 33.61, 2.12, 2.06, 8.99, repro,
1999-04-11,-42.91, -13.99, 42.30, 2.16, 2.09, 9.13, repro,
1999-04-12,-41.13, -17.90, 33.89, 2.13, 2.11, 9.11, repro,
1999-04-13,-41.71, -7.78, 29.21, 2.12, 2.09, 9.07, repro,
1999-04-14,-42.63, -14.65, 29.01, 2.19, 2.18, 9.51, repro,
1999-04-15,-43.70, -10.45, 33.13, 2.19, 2.19, 9.33, repro,
1999-04-16,-52.35, 35.40, 87.68, 4.00, 4.14, 16.86, repro,
1999-04-17,13.08, 12.08, -201.92, 51.05, 43.34, 154.78, repro,
1999-04-20,-25.53, -5.62, 10.32, 2.14, 1.92, 8.70, repro,
1999-04-21,-43.94, -14.72, 51.50, 2.20, 2.09, 9.52, repro,
1999-04-22,-44.81, -17.42, 33.08, 2.18, 2.09, 9.46, repro,
1999-04-23,-44.74, -13.70, 38.92, 2.15, 2.13, 9.04, repro,
1999-04-24,-43.73, -11.68, 40.04, 2.13, 2.08, 8.89, repro,
1999-04-25,-38.64, -8.55, 33.76, 2.17, 2.11, 8.88, repro,
1999-04-26,-41.47, -6.32, 33.02, 2.17, 2.08, 8.91, repro,
1999-04-27,-41.52, -12.74, 44.92, 2.20, 2.21, 9.32, repro,
1999-04-28,-44.29, -10.99, 18.89, 2.13, 2.04, 8.96, repro,
1999-04-29,-45.18, -12.21, 34.32, 2.09, 2.02, 8.85, repro,
1999-04-30,-42.19, -13.77, 37.24, 2.17, 2.25, 9.24, repro,
1999-05-01,-43.15, -14.90, 32.57, 2.19, 2.20, 9.20, repro,
1999-05-02,-42.90, -13.67, 30.20, 2.15, 2.07, 9.12, repro,
1999-05-03,-42.73, -13.60, 40.34, 2.25, 2.26, 9.55, repro,
1999-05-04,-41.87, -14.44, 43.47, 2.21, 2.26, 9.69, repro,
1999-05-05,-44.95, -11.96, 33.14, 2.23, 2.18, 8.99, repro,
1999-05-06,-43.83, -14.74, 27.64, 2.23, 2.05, 9.41, repro,
1999-05-07,-42.59, -12.48, 37.24, 2.57, 2.38, 10.64, repro,
1999-05-08,-42.80, -14.55, 28.31, 2.19, 2.24, 9.48, repro,
1999-05-09,-43.66, -13.67, 20.42, 2.28, 2.29, 9.63, repro,
1999-05-10,-42.99, -9.38, 36.23, 2.25, 2.24, 9.26, repro,
1999-05-11,-44.18, -15.61, 42.23, 2.16, 2.22, 9.30, repro,
1999-05-12,-44.18, -16.01, 26.59, 2.15, 2.14, 9.06, repro,
1999-05-13,-43.86, -13.09, 46.09, 2.21, 2.22, 9.32, repro,
1999-05-14,-44.70, -19.54, 42.31, 2.15, 2.11, 9.01, repro,
1999-05-15,-44.90, -17.72, 30.72, 2.16, 2.20, 9.26, repro,
1999-05-16,-44.73, -17.58, 29.61, 2.15, 2.18, 9.13, repro,
1999-05-17,-43.91, -15.20, 32.10, 2.30, 2.38, 9.88, repro,
1999-05-18,-45.05, -16.41, 29.55, 2.26, 2.35, 9.77, repro,
1999-05-19,-43.22, -14.05, 25.26, 2.24, 2.21, 9.60, repro,
1999-05-20,-44.73, -14.78, 28.08, 2.14, 2.13, 9.16, repro,
1999-05-21,-45.84, -13.92, 33.93, 2.22, 2.29, 9.40, repro,
1999-05-22,-44.89, -20.54, 47.34, 2.18, 2.21, 9.58, repro,
1999-05-23,-44.02, -18.41, 42.38, 2.14, 2.16, 9.38, repro,
1999-05-24,-44.12, -15.22, 21.88, 2.14, 2.15, 9.26, repro,
1999-05-25,-45.64, -16.03, 37.88, 2.08, 2.00, 8.77, repro,
1999-05-26,-44.82, -13.70, 25.89, 2.14, 2.20, 9.39, repro,
1999-05-27,-46.40, -18.11, 50.34, 2.12, 2.14, 9.24, repro,
1999-05-28,-45.84, -15.60, 36.66, 2.13, 2.06, 9.03, repro,
1999-05-29,-46.94, -18.35, 50.54, 2.09, 2.03, 8.84, repro,
1999-05-30,-46.83, -19.35, 47.28, 2.12, 2.03, 8.92, repro,
1999-05-31,-47.03, -15.25, 35.28, 2.16, 2.11, 9.36, repro,
1999-06-01,-44.60, -16.46, 44.21, 2.17, 2.07, 9.23, repro,
1999-06-02,-40.64, -20.93, 44.08, 2.17, 2.08, 9.21, repro,
1999-06-03,-39.12, -24.06, 52.99, 2.20, 2.11, 9.18, repro,
1999-06-04,-44.77, -19.08, 49.19, 2.14, 2.08, 9.16, repro,
1999-06-05,-45.25, -17.78, 46.65, 2.15, 2.09, 9.28, repro,
1999-06-06,-42.89, -12.85, 23.69, 2.24, 2.15, 9.48, repro,
1999-06-07,-45.13, -13.51, 49.86, 2.21, 2.15, 9.28, repro,
1999-06-08,-43.96, -14.38, 36.53, 2.10, 2.00, 8.73, repro,
1999-06-09,-44.92, -18.55, 47.18, 2.11, 2.00, 8.85, repro,
1999-06-10,-44.86, -15.46, 39.81, 2.13, 2.02, 8.99, repro,
1999-06-11,-45.43, -13.60, 31.22, 2.19, 2.11, 9.50, repro,
1999-06-12,-45.61, -16.29, 40.20, 2.10, 2.01, 8.75, repro,
1999-06-13,-43.22, -13.62, 30.44, 2.18, 2.09, 9.24, repro,
1999-06-14,-44.89, -13.37, 26.71, 2.31, 2.04, 9.54, repro,
1999-06-15,-47.13, -14.13, 33.71, 2.17, 2.06, 9.27, repro,
1999-06-16,-44.34, -16.34, 42.76, 2.14, 2.07, 9.14, repro,
1999-06-17,-45.32, -13.57, 46.22, 2.17, 2.05, 9.11, repro,
1999-06-18,-44.76, -12.16, 38.15, 2.09, 1.99, 8.80, repro,
1999-06-19,-43.32, -14.82, 28.07, 2.15, 2.01, 8.87, repro,
1999-06-20,-45.05, -13.47, 42.17, 2.08, 1.97, 8.72, repro,
1999-06-21,-46.79, -16.70, 40.57, 2.12, 2.01, 8.83, repro,
1999-06-22,-45.91, -15.56, 52.67, 2.23, 2.07, 9.03, repro,
1999-06-23,-45.74, -14.97, 50.72, 2.13, 2.07, 9.09, repro,
1999-06-24,-48.18, -12.73, 38.93, 2.17, 2.13, 9.15, repro,
1999-06-25,-47.76, -12.66, 38.85, 2.22, 2.19, 9.53, repro,
1999-06-26,-49.13, -17.24, 50.08, 2.22, 2.22, 9.44, repro,
1999-06-27,-47.24, -14.43, 48.35, 2.22, 2.14, 9.91, repro,
1999-06-28,-47.16, -14.34, 33.78, 2.21, 2.22, 9.43, repro,
1999-06-29,-49.97, -19.33, 75.17, 2.76, 2.94, 12.48, repro,
1999-06-30,-45.71, -11.31, 37.17, 2.18, 2.12, 9.61, repro,
1999-07-01,-47.73, -13.44, 43.45, 2.35, 2.19, 10.04, repro,
1999-07-02,-46.55, -16.60, 44.20, 2.27, 2.06, 9.76, repro,
1999-07-03,-47.12, -16.24, 45.07, 2.27, 2.15, 10.11, repro,
1999-07-04,-46.75, -18.04, 45.46, 2.22, 2.16, 9.92, repro,
1999-07-05,-44.64, -13.90, 44.90, 2.25, 2.17, 9.71, repro,
1999-07-06,-45.11, -15.46, 43.90, 2.19, 2.24, 9.55, repro,
1999-07-07,-50.03, -15.21, 33.93, 2.40, 2.14, 9.97, repro,
1999-07-08,-44.51, -19.82, 56.24, 2.37, 2.13, 9.88, repro,
1999-07-09,-46.07, -14.18, 41.56, 2.28, 2.15, 9.47, repro,
1999-07-10,-46.95, -13.28, 39.62, 2.25, 2.08, 9.54, repro,
1999-07-11,-47.22, -13.70, 30.49, 2.30, 2.17, 9.55, repro,
1999-07-12,-45.19, -18.16, 35.85, 2.21, 2.07, 9.40, repro,
1999-07-13,-35.30, -15.84, 55.31, 5.18, 5.55, 21.85, repro,
1999-07-14,-46.57, -17.60, 41.91, 2.23, 2.09, 9.55, repro,
1999-07-15,-46.07, -16.10, 36.35, 2.18, 2.14, 9.58, repro,
1999-07-16,-47.57, -14.27, 45.77, 2.23, 2.13, 9.83, repro,
1999-07-17,-47.33, -14.04, 36.77, 2.23, 2.24, 9.91, repro,
1999-07-18,-44.33, -12.57, 42.70, 2.33, 2.18, 9.35, repro,
1999-07-19,-45.33, -14.98, 37.91, 2.27, 2.19, 9.88, repro,
1999-07-20,-43.75, -11.26, 42.56, 2.34, 2.22, 9.98, repro,
1999-07-21,-46.76, -17.37, 38.77, 2.09, 2.02, 8.88, repro,
1999-07-22,-48.20, -16.06, 39.01, 2.22, 2.07, 9.31, repro,
1999-07-23,-45.16, -14.89, 49.58, 2.40, 2.19, 9.61, repro,
1999-07-24,-44.99, -15.48, 27.80, 2.45, 2.42, 10.75, repro,
1999-07-25,-47.55, -17.80, 51.40, 2.25, 2.14, 9.37, repro,
1999-07-26,-48.62, -19.13, 49.69, 2.37, 2.11, 9.58, repro,
1999-07-27,-46.80, -16.66, 48.59, 2.35, 2.16, 9.93, repro,
1999-07-28,-76.61, -22.56, 64.62, 2.30, 2.01, 9.25, repro,
1999-07-29,-43.69, -14.40, 31.74, 2.07, 1.85, 8.07, repro,
1999-07-30,-43.65, -14.30, 49.27, 2.13, 1.89, 8.32, repro,
1999-07-31,-44.47, -16.05, 31.18, 2.12, 1.88, 8.31, repro,
1999-08-01,-44.02, -15.07, 26.86, 2.05, 1.79, 7.94, repro,
1999-08-02,-44.04, -13.81, 20.81, 2.05, 1.78, 7.95, repro,
1999-08-03,-43.47, -14.10, 25.76, 2.19, 1.92, 8.59, repro,
1999-08-04,-43.67, -12.41, 25.01, 2.10, 1.88, 8.53, repro,
1999-08-05,-45.02, -14.83, 28.65, 2.09, 1.82, 8.03, repro,
1999-08-06,-44.12, -14.10, 34.62, 2.22, 1.95, 8.53, repro,
1999-08-07,-43.58, -15.21, 23.75, 2.05, 1.78, 7.96, repro,
1999-08-08,-43.51, -14.60, 26.28, 3.35, 2.99, 13.55, repro,
1999-08-10,-44.59, -14.84, 28.04, 2.25, 2.07, 8.90, repro,
1999-08-11,-43.58, -12.80, 30.23, 2.15, 2.01, 8.59, repro,
1999-08-12,-44.37, -14.68, 25.33, 2.12, 1.88, 8.34, repro,
1999-08-13,-43.12, -14.36, 22.19, 2.21, 1.97, 8.68, repro,
1999-08-14,-43.77, -13.24, 26.85, 2.02, 1.77, 7.92, repro,
1999-08-15,-44.30, -14.02, 20.83, 2.17, 1.83, 8.36, repro,
1999-08-16,-42.64, -13.41, 31.88, 2.03, 1.78, 7.94, repro,
1999-08-17,-43.70, -14.08, 34.37, 2.08, 1.86, 8.18, repro,
1999-08-18,-44.60, -13.32, 21.53, 2.04, 1.78, 7.94, repro,
1999-08-19,-43.85, -14.04, 40.31, 2.03, 1.78, 7.92, repro,
1999-08-20,-43.66, -15.21, 37.00, 2.09, 1.83, 8.05, repro,
1999-08-21,-43.42, -13.80, 31.18, 2.02, 1.78, 7.91, repro,
1999-08-22,-43.35, -14.24, 25.08, 2.05, 1.84, 8.13, repro,
1999-08-23,-44.90, -12.84, 33.96, 2.19, 1.84, 8.36, repro,
1999-08-24,-43.37, -14.31, 25.04, 2.14, 1.87, 8.49, repro,
1999-08-25,-44.97, -15.00, 32.70, 2.12, 1.85, 8.25, repro,
1999-08-26,-44.92, -13.65, 46.03, 2.25, 1.85, 8.75, repro,
1999-08-27,-44.23, -15.61, 44.61, 2.13, 1.89, 8.27, repro,
1999-08-28,-44.90, -13.93, 36.48, 2.11, 1.88, 8.21, repro,
1999-08-29,-43.36, -14.13, 33.84, 2.16, 1.93, 9.67, repro,
1999-08-30,-44.61, -13.16, 27.67, 2.18, 1.93, 8.46, repro,
1999-08-31,-43.86, -13.63, 29.02, 2.17, 1.92, 8.32, repro,
1999-09-01,-43.75, -14.81, 36.04, 2.25, 1.92, 8.68, repro,
1999-09-02,-43.64, -14.39, 29.29, 2.13, 1.85, 8.18, repro,
1999-09-03,-43.70, -14.26, 34.19, 2.21, 1.93, 8.57, repro,
1999-09-04,-44.59, -14.36, 28.11, 2.22, 1.91, 8.55, repro,
1999-09-05,-44.14, -13.90, 26.54, 2.09, 1.85, 8.21, repro,
1999-09-06,-42.49, -13.75, 34.58, 2.20, 1.91, 8.54, repro,
1999-09-07,-42.00, -13.81, 30.94, 2.46, 1.98, 9.61, repro,
1999-09-08,-43.30, -13.51, 27.62, 2.44, 2.02, 9.56, repro,
1999-09-09,-43.47, -14.98, 24.65, 2.19, 1.86, 8.38, repro,
1999-09-10,-42.72, -12.37, 25.67, 2.18, 1.86, 8.24, repro,
1999-09-11,-43.40, -13.78, 25.89, 2.33, 1.97, 8.82, repro,
1999-09-12,-43.11, -14.85, 24.56, 2.23, 1.89, 8.51, repro,
1999-09-13,-44.12, -12.91, 31.87, 2.18, 1.84, 8.34, repro,
1999-09-14,-42.85, -14.24, 28.08, 2.22, 1.89, 8.40, repro,
1999-09-15,-42.17, -13.38, 24.28, 2.26, 1.88, 8.84, repro,
1999-09-16,-43.09, -14.92, 37.28, 2.18, 1.90, 8.23, repro,
1999-09-17,-40.95, -13.20, 23.99, 2.32, 1.95, 8.80, repro,
1999-09-18,-44.91, -15.90, 32.76, 2.24, 1.90, 8.46, repro,
1999-09-19,-45.12, -13.03, 25.17, 2.21, 1.86, 8.51, repro,
1999-09-20,-43.78, -14.86, 27.99, 2.29, 1.98, 8.62, repro,
1999-09-21,-44.08, -12.51, 27.12, 2.27, 1.95, 8.61, repro,
1999-09-22,-42.90, -13.81, 34.91, 2.26, 1.94, 8.68, repro,
1999-09-23,-42.68, -15.79, 40.15, 2.24, 1.97, 8.68, repro,
1999-09-24,-42.73, -12.51, 34.85, 2.32, 1.99, 8.77, repro,
1999-09-25,-42.25, -13.41, 31.04, 2.14, 1.88, 8.29, repro,
1999-09-26,-43.81, -13.91, 29.88, 2.46, 2.13, 9.57, repro,
1999-09-27,-42.65, -13.16, 31.98, 2.31, 2.05, 9.22, repro,
1999-09-28,-42.04, -15.26, 28.84, 2.32, 2.03, 8.61, repro,
1999-09-29,-43.56, -13.18, 31.27, 2.60, 2.35, 9.80, repro,
1999-09-30,-43.58, -13.15, 32.18, 2.75, 2.43, 10.29, repro,
1999-10-01,-44.40, -13.38, 34.10, 2.84, 2.56, 10.65, repro,
1999-10-02,-43.55, -13.55, 30.92, 2.36, 2.15, 9.13, repro,
1999-10-03,-44.34, -13.65, 25.40, 2.56, 2.24, 9.41, repro,
1999-10-04,-41.89, -13.36, 25.43, 2.19, 1.92, 8.30, repro,
1999-10-05,-43.62, -14.81, 31.14, 2.24, 1.94, 8.39, repro,
1999-10-06,-42.89, -13.42, 30.44, 2.29, 1.99, 8.66, repro,
1999-10-07,-48.84, -16.34, 40.55, 2.40, 2.00, 8.99, repro,
1999-10-08,-43.63, -13.43, 31.18, 2.34, 1.96, 8.67, repro,
1999-10-09,-43.48, -13.95, 30.08, 2.27, 2.03, 8.66, repro,
1999-10-10,-44.74, -13.63, 35.40, 2.23, 1.91, 8.40, repro,
1999-10-11,-45.27, -13.53, 30.66, 2.29, 2.07, 8.72, repro,
1999-10-12,-44.53, -13.59, 33.60, 2.39, 2.03, 9.07, repro,
1999-10-13,-44.64, -14.08, 27.61, 2.45, 2.08, 9.28, repro,
1999-10-14,-43.89, -13.27, 30.15, 2.20, 1.98, 8.55, repro,
1999-10-15,-43.25, -13.35, 35.75, 2.20, 1.92, 8.38, repro,
1999-10-16,-33.72, -3.15, 36.53, 2.14, 1.88, 8.36, repro,
1999-10-17,-28.88, -4.10, 25.94, 2.21, 1.90, 8.60, repro,
1999-10-18,-33.27, -4.70, 38.45, 2.33, 1.94, 8.76, repro,
1999-10-19,-32.02, -4.33, 35.58, 2.29, 1.84, 8.74, repro,
1999-10-20,-30.87, -4.13, 32.30, 2.18, 1.91, 8.54, repro,
1999-10-21,-31.05, -5.48, 32.28, 2.18, 1.92, 8.58, repro,
1999-10-22,-32.02, -6.48, 33.89, 2.35, 2.15, 9.56, repro,
1999-10-23,-31.36, -5.21, 27.77, 2.16, 1.92, 8.34, repro,
1999-10-24,-32.16, -3.98, 27.55, 2.31, 2.04, 8.89, repro,
1999-10-25,-31.15, -5.62, 31.35, 2.15, 1.92, 8.32, repro,
1999-10-26,-32.14, -4.77, 45.27, 2.05, 1.79, 8.03, repro,
1999-10-27,-30.51, -5.20, 40.50, 2.17, 1.88, 8.36, repro,
1999-10-28,-30.87, -4.87, 32.65, 2.24, 1.92, 8.44, repro,
1999-10-29,-30.41, -2.98, 33.16, 2.20, 1.94, 8.42, repro,
1999-10-30,-31.23, -4.62, 29.54, 2.14, 1.89, 8.25, repro,
1999-10-31,-28.71, -5.67, 37.52, 2.37, 1.92, 8.81, repro,
1999-11-01,-31.30, -11.16, 35.33, 2.30, 1.94, 8.92, repro,
1999-11-02,-28.64, -12.27, 42.54, 2.29, 1.91, 8.64, repro,
1999-11-03,-30.98, -12.72, 43.42, 2.31, 1.89, 8.87, repro,
1999-11-04,-33.16, -10.61, 43.46, 2.26, 1.89, 8.60, repro,
1999-11-05,-30.36, -9.91, 38.90, 2.30, 1.91, 8.69, repro,
1999-11-06,-31.99, -9.90, 38.62, 2.23, 1.85, 8.47, repro,
1999-11-07,-28.63, -12.16, 39.17, 2.40, 1.91, 8.96, repro,
1999-11-08,-31.65, -19.23, 45.23, 2.30, 1.86, 8.77, repro,
1999-11-09,-30.20, -13.82, 45.28, 2.26, 1.87, 8.59, repro,
1999-11-10,-35.50, -12.62, 35.42, 2.18, 1.79, 8.36, repro,
1999-11-11,-30.62, -11.51, 37.95, 2.13, 1.80, 8.18, repro,
1999-11-12,-31.12, -14.51, 42.54, 2.18, 1.90, 8.41, repro,
1999-11-13,-31.86, -19.02, 52.99, 2.23, 1.89, 8.47, repro,
1999-11-14,-29.64, -17.31, 37.97, 2.26, 1.89, 8.67, repro,
1999-11-15,-31.35, -19.83, 36.32, 2.24, 1.84, 8.68, repro,
1999-11-16,-32.19, -19.87, 49.88, 2.26, 1.93, 8.69, repro,
1999-11-17,-34.36, -23.99, 49.39, 2.23, 1.88, 8.64, repro,
1999-11-18,-28.99, -13.28, 44.78, 2.26, 1.94, 8.72, repro,
1999-11-19,-29.18, -15.15, 40.10, 2.26, 1.94, 8.63, repro,
1999-11-20,-33.26, -20.22, 52.66, 2.21, 1.93, 8.60, repro,
1999-11-21,-26.31, -26.45, 49.41, 2.45, 2.06, 9.16, repro,
1999-11-22,-33.94, -22.48, 44.43, 2.33, 1.94, 8.77, repro,
1999-11-23,-27.87, -27.20, 30.18, 2.51, 2.29, 10.26, repro,
1999-11-24,-30.36, -6.10, 35.80, 2.49, 2.33, 9.98, repro,
1999-11-25,-32.84, -15.99, 49.80, 2.34, 2.03, 9.03, repro,
1999-11-26,-29.99, -14.95, 45.08, 2.27, 1.98, 8.85, repro,
1999-11-27,-30.99, -11.72, 34.85, 2.13, 1.85, 8.34, repro,
1999-11-28,-29.85, -15.63, 37.61, 2.20, 1.92, 8.58, repro,
1999-11-29,-34.93, -22.90, 41.00, 2.27, 1.91, 8.88, repro,
1999-11-30,-35.87, -20.19, 34.78, 2.34, 1.95, 8.93, repro,
1999-12-01,-35.43, -20.56, 60.15, 2.35, 1.99, 9.32, repro,
1999-12-02,-32.15, -14.39, 41.07, 2.14, 1.83, 8.28, repro,
1999-12-03,-39.92, -31.34, 60.66, 2.47, 2.28, 9.80, repro,
1999-12-04,-33.19, -22.05, 33.16, 2.37, 2.06, 9.12, repro,
1999-12-05,-34.27, -17.42, 36.72, 2.16, 1.91, 8.61, repro,
1999-12-06,-33.54, -20.60, 35.03, 2.39, 2.02, 9.41, repro,
1999-12-07,-36.24, -23.95, 57.73, 2.45, 2.10, 10.05, repro,
1999-12-08,-37.08, -22.43, 50.13, 2.65, 2.37, 10.06, repro,
1999-12-09,-34.57, -19.51, 33.14, 2.39, 2.21, 9.51, repro,
1999-12-10,-36.80, -15.43, 25.94, 2.26, 1.95, 8.77, repro,
1999-12-11,-37.99, -22.52, 46.70, 2.31, 1.93, 9.25, repro,
1999-12-12,-33.12, -19.41, 35.57, 2.25, 2.07, 8.71, repro,
1999-12-13,-40.03, -18.41, 34.61, 2.40, 2.30, 9.53, repro,
1999-12-14,-34.92, -22.17, 36.00, 2.45, 2.05, 9.43, repro,
1999-12-15,-33.20, -32.32, 37.58, 2.43, 2.21, 10.07, repro,
1999-12-16,-34.89, -28.02, 53.10, 2.45, 2.09, 9.54, repro,
1999-12-17,-31.66, -26.41, 59.79, 2.51, 2.20, 9.76, repro,
1999-12-18,-30.39, -25.68, 46.58, 2.32, 2.01, 8.86, repro,
1999-12-19,-36.50, -30.89, 43.79, 2.34, 2.00, 9.23, repro,
1999-12-20,-37.27, -31.19, 64.17, 2.24, 1.91, 8.67, repro,
1999-12-21,-38.08, -24.09, 36.41, 2.53, 2.08, 9.74, repro,
1999-12-22,-36.15, -30.61, 62.19, 2.48, 2.14, 9.88, repro,
1999-12-23,-31.91, -37.61, 51.54, 2.52, 2.30, 9.89, repro,
1999-12-24,-32.66, -37.31, 48.23, 2.60, 2.35, 10.70, repro,
1999-12-25,-34.14, -26.97, 35.85, 2.30, 2.03, 8.98, repro,
1999-12-26,-34.98, -23.38, 36.06, 2.23, 2.00, 8.80, repro,
1999-12-27,-36.33, -25.78, 32.39, 2.79, 2.38, 11.12, repro,
1999-12-28,-37.56, -24.36, 26.42, 2.40, 1.95, 9.24, repro,
1999-12-29,-29.95, -19.46, 28.17, 2.33, 1.98, 8.73, repro,
1999-12-30,-35.95, -21.54, 37.75, 2.21, 1.94, 8.84, repro,
1999-12-31,-38.10, -16.63, 33.76, 2.29, 1.85, 8.77, repro,
2000-01-01,-33.58, -13.79, 26.69, 2.53, 2.20, 10.16, repro,
2000-01-02,-33.26, -19.97, 35.67, 2.20, 1.96, 8.64, repro,
2000-01-03,-38.19, -16.84, 33.73, 2.14, 1.85, 8.35, repro,
2000-01-04,-34.62, -20.76, 32.89, 2.26, 1.81, 8.53, repro,
2000-01-05,-35.13, -26.56, 44.42, 2.22, 1.86, 8.55, repro,
2000-01-06,-39.14, -25.39, 39.07, 2.17, 1.81, 8.20, repro,
2000-01-07,-33.30, -18.63, 22.49, 2.48, 2.00, 9.60, repro,
2000-01-08,-35.79, -17.29, 35.37, 2.15, 1.82, 8.26, repro,
2000-01-09,-36.42, -22.20, 43.01, 2.21, 1.78, 8.36, repro,
2000-01-10,-33.85, -25.10, 37.36, 2.30, 1.88, 8.80, repro,
2000-01-11,-37.22, -21.05, 33.36, 2.18, 1.87, 8.58, repro,
2000-01-12,-30.33, -18.31, 29.00, 2.18, 1.84, 8.41, repro,
2000-01-13,-37.60, -24.00, 30.45, 2.29, 1.85, 9.04, repro,
2000-01-14,-29.99, -22.05, 25.88, 2.28, 1.97, 8.97, repro,
2000-01-15,-33.39, -29.52, 33.24, 2.31, 1.90, 9.23, repro,
2000-01-16,-36.81, -33.55, 39.28, 2.13, 1.79, 8.28, repro,
2000-01-17,-36.63, -31.47, 28.69, 2.24, 1.86, 8.88, repro,
2000-01-18,-34.52, -33.48, 50.96, 2.20, 1.86, 8.81, repro,
2000-01-19,-35.36, -28.70, 37.37, 2.19, 1.84, 8.51, repro,
2000-01-20,-32.83, -32.19, 41.24, 2.32, 1.88, 9.32, repro,
2000-01-21,-33.27, -33.41, 57.33, 2.18, 1.91, 8.61, repro,
2000-01-22,-36.62, -28.94, 44.36, 2.27, 1.92, 8.86, repro,
2000-01-23,-35.85, -24.91, 37.53, 2.22, 1.85, 8.88, repro,
2000-01-24,-32.42, -33.11, 50.18, 2.20, 1.84, 8.70, repro,
2000-01-25,-34.12, -31.85, 40.84, 2.24, 1.80, 8.65, repro,
2000-01-26,-36.27, -28.11, 43.57, 2.26, 1.84, 8.78, repro,
2000-01-27,-33.54, -27.08, 35.67, 2.38, 1.93, 9.26, repro,
2000-01-28,-34.16, -25.16, 27.95, 2.26, 1.87, 8.95, repro,
2000-01-29,-35.38, -25.82, 34.76, 2.36, 1.95, 9.50, repro,
2000-01-30,-34.13, -29.41, 36.56, 2.24, 1.83, 8.88, repro,
2000-01-31,-33.15, -29.81, 40.66, 2.36, 1.91, 9.42, repro,
2000-02-01,-38.23, -27.13, 36.53, 2.27, 1.82, 8.91, repro,
2000-02-02,-32.45, -30.42, 41.68, 2.41, 1.98, 9.98, repro,
2000-02-03,-37.03, -28.61, 17.69, 2.38, 2.01, 9.95, repro,
2000-02-04,-33.91, -30.30, 47.15, 2.27, 1.88, 9.25, repro,
2000-02-05,-31.73, -30.81, 41.49, 2.34, 1.92, 9.18, repro,
2000-02-06,-33.41, -24.45, 38.97, 2.11, 1.85, 8.30, repro,
2000-02-07,-30.08, -22.13, 31.21, 2.29, 1.82, 8.74, repro,